Regional Weather Roundup
Issued by NWS

Home | Current Version | Previous Version | Text Only | Print | Product List | Glossary Off
Versions: 1 2 3 4 5 6 7 8 9 10 11 12 13 14 15 16 17 18 19 20 21 22 23 24 25 26 27 28 29 30 31 32 33 34 35 36 37 38 39 40 41 42 43 44 45 46 47 48 49 50

000
ASUS45 KBOI 081010
RWRID

IDAHO REGIONAL WEATHER ROUNDUP
NATIONAL WEATHER SERVICE BOISE ID
300 AM MST THU DEC 08 2016

NOTE: "FAIR" INDICATES FEW OR NO CLOUDS BELOW 12000 FEET
WITH NO SIGNIFICANT WEATHER AND/OR OBSTRUCTIONS TO VISIBILITY

IDZ012-014-081100-
SOUTHWEST IDAHO


CITY           SKY/WX    TMP DP  RH WIND       PRES   REMARKS
BOISE          PTCLDY    18  11  74 S10       30.32F WCI   6
CALDWELL       PTCLDY    17  13  84 E8        30.36S WCI   7
MOUNTAIN HOME  PTCLDY    10   6  87 N5        30.31F WCI   1
$$

IDZ016-017-081100-
SOUTHCENTRAL IDAHO


CITY           SKY/WX    TMP DP  RH WIND       PRES   REMARKS
BURLEY         CLEAR      7   3  84 E10       30.29S WCI  -8
JEROME         PTCLDY    12   8  84 NE21      30.29S WCI  -7
TWIN FALLS     PTCLDY     9   5  84 E7        30.27F WCI  -2
$$

IDZ019>023-081100-
SOUTHEAST IDAHO


CITY           SKY/WX    TMP DP  RH WIND       PRES   REMARKS
IDAHO FALLS    CLOUDY     1  -3  83 N6        30.34R WCI -10
POCATELLO      CLOUDY    -6  -9  86 CALM      30.34R FOG
REXBURG        NOT AVBL
$$

IDZ006-010-011-018-031-032-081100-
CENTRAL IDAHO MOUNTAINS


CITY           SKY/WX    TMP DP  RH WIND       PRES   REMARKS
MCCALL         CLOUDY     5   1  83 CALM      30.19S
HAILEY         PTCLDY     3  -4  72 NW12      30.29F WCI -13
STANLEY          N/A    -17 -23  73 CALM      30.20F
SALMON         CLOUDY    -4  -8  84 CALM      30.37S
CHALLIS        CLEAR     -1  -5  82 CALM      30.30S
$$

IDZ002-004-006-007-026-081100-
NORTHERN IDAHO


CITY           SKY/WX    TMP DP  RH WIND       PRES   REMARKS
LEWISTON       PTCLDY    14  11  87 SE3       30.40F
LOWELL           N/A     18  14  84 CALM      30.48S
COEUR D`ALENE  CLEAR     13   6  74 NE13      30.40F WCI  -2
MULLAN PASS    CLOUDY    -1  -4  87 SE7       30.12F FOG     WCI -14
$$



USA.gov is the U.S. government's official web portal to all federal, state and local government web resources and services.